This is the latest recevied weather packets stored in our database for station/object AA4OM-2. If no packets are shown the sender has not sent any weather packets the latest 10 day(s).
| Time | Temp. | Humidity | Pressure | Rain* | Wind** | Luminosity | Snow |
|---|---|---|---|---|---|---|---|
| 1777220170 | 26.11° C | 51% | 1014.6 hPa | 0 mm | - | 920 W/m² | - |
| 1777219867 | 26.11° C | 57% | 1014.6 hPa | 0 mm | - | 915 W/m² | - |
| 1777219565 | 25.56° C | 51% | 1014.7 hPa | 0 mm | - | 864 W/m² | - |
| 1777219262 | 25° C | 55% | 1014.9 hPa | 0 mm | - | 858 W/m² | - |
| 1777218957 | 25° C | 52% | 1014.8 hPa | 0 mm | - | 842 W/m² | - |
| 1777218653 | 25° C | 54% | 1014.9 hPa | 0 mm | - | 835 W/m² | - |
| 1777218348 | 25° C | 55% | 1014.7 hPa | 0 mm | - | 817 W/m² | - |
| 1777218045 | 25° C | 56% | 1014.6 hPa | 0 mm | - | 806 W/m² | - |
| 1777217741 | 25° C | 57% | 1015 hPa | 0 mm | - | 791 W/m² | - |
| 1777217437 | 24.44° C | 59% | 1014.9 hPa | 0 mm | - | 663 W/m² | - |
| 1777217133 | 24.44° C | 60% | 1015 hPa | 0 mm | - | 748 W/m² | - |
| 1777216830 | 23.89° C | 60% | 1014.9 hPa | 0 mm | - | 722 W/m² | - |
| 1777216527 | 23.89° C | 60% | 1014.7 hPa | 0 mm | - | 128 W/m² | - |
| 1777216222 | 23.89° C | 60% | 1014.8 hPa | 0 mm | - | 177 W/m² | - |
| 1777215921 | 23.89° C | 64% | 1014.8 hPa | 0 mm | - | 194 W/m² | - |
| 1777215617 | 24.44° C | 61% | 1014.7 hPa | 0 mm | - | 197 W/m² | - |
| 1777215313 | 23.33° C | 65% | 1014.7 hPa | 0 mm | - | 74 W/m² | - |
| 1777215010 | 22.78° C | 66% | 1014.9 hPa | 0 mm | - | 641 W/m² | - |
| 1777214708 | 22.78° C | 66% | 1014.9 hPa | 0 mm | - | 420 W/m² | - |
| 1777214408 | 22.22° C | 67% | 1014.8 hPa | 0 mm | - | 217 W/m² | - |
| 1777214103 | 22.22° C | 69% | 1014.8 hPa | 0 mm | - | 290 W/m² | - |
| 1777213796 | 21.67° C | 71% | 1014.8 hPa | 0 mm | - | 208 W/m² | - |
| 1777213487 | 21.67° C | 70% | 1014.9 hPa | 0 mm | - | 210 W/m² | - |
| 1777213184 | 21.11° C | 72% | 1014.7 hPa | 0 mm | - | 239 W/m² | - |
| 1777212880 | 21.11° C | 71% | 1014.8 hPa | 0 mm | - | 61 W/m² | - |
* Rain latest hour (hover to see other rain measurements)
** Current wind speed in m/s (hover to see current wind gust speed)